This is the latest recevied weather packets stored in our database for station/object WA1NHP. If no packets are shown the sender has not sent any weather packets the latest 10 day(s).
| Time | Temp. | Humidity | Pressure | Rain* | Wind** | Luminosity | Snow |
|---|---|---|---|---|---|---|---|
| 1777547044 | 6.11° C | 97% | 1023.9 hPa | 0.25 mm | - | 14 W/m² | - |
| 1777546444 | 6.11° C | 97% | 1023.9 hPa | 0.25 mm | - | 33 W/m² | - |
| 1777545844 | 6.11° C | 97% | 1023.9 hPa | 0.25 mm | - | 18 W/m² | - |
| 1777545243 | 6.11° C | 96% | 1023.9 hPa | 0.25 mm | - | 11 W/m² | - |
| 1777544643 | 5.56° C | 96% | 1023.9 hPa | 0.51 mm | - | 5 W/m² | - |
| 1777544043 | 5.56° C | 96% | 1023.9 hPa | 0.25 mm | - | 0 W/m² | - |
| 1777543444 | 5.56° C | 96% | 1023.9 hPa | 0.25 mm | - | 0 W/m² | - |
| 1777542843 | 5.56° C | 96% | 1023.9 hPa | 0.51 mm | - | 0 W/m² | - |
| 1777542243 | 5.56° C | 96% | 1023.9 hPa | 0.51 mm | - | 0 W/m² | - |
| 1777541644 | 5.56° C | 96% | 1023.9 hPa | 0.51 mm | - | 0 W/m² | - |
| 1777541044 | 5.56° C | 96% | 1023.9 hPa | 0.76 mm | - | 0 W/m² | - |
| 1777540443 | 5.56° C | 96% | 1023.9 hPa | 1.02 mm | - | 0 W/m² | - |
| 1777539844 | 5.56° C | 96% | 1023.9 hPa | 1.27 mm | - | 0 W/m² | - |
| 1777539244 | 5.56° C | 96% | 1023.9 hPa | 1.52 mm | - | 0 W/m² | - |
| 1777538644 | 5.56° C | 96% | 1023.9 hPa | 2.03 mm | - | 0 W/m² | - |
| 1777538044 | 5.56° C | 96% | 1023.9 hPa | 2.29 mm | - | 0 W/m² | - |
| 1777537444 | 5.56° C | 96% | 1023.9 hPa | 2.29 mm | - | 0 W/m² | - |
| 1777536844 | 5.56° C | 96% | 1023.9 hPa | 2.29 mm | - | 0 W/m² | - |
| 1777536244 | 6.11° C | 95% | 1023.9 hPa | 2.54 mm | - | 0 W/m² | - |
| 1777535643 | 6.11° C | 95% | 1023.9 hPa | 2.29 mm | - | 0 W/m² | - |
| 1777535044 | 6.11° C | 95% | 1023.9 hPa | 2.03 mm | - | 0 W/m² | - |
| 1777534443 | 5.56° C | 95% | 1023.9 hPa | 2.03 mm | - | 0 W/m² | - |
| 1777533844 | 5.56° C | 95% | 1023.9 hPa | 1.52 mm | - | 0 W/m² | - |
| 1777533244 | 5.56° C | 95% | 1023.9 hPa | 1.27 mm | - | 0 W/m² | - |
| 1777532645 | 5.56° C | 95% | 1023.9 hPa | 0.76 mm | - | 0 W/m² | - |
* Rain latest hour (hover to see other rain measurements)
** Current wind speed in m/s (hover to see current wind gust speed)